sat.trackr.live / text

‹ back to catalog

STARLINK-6356

NORAD 57363 · 2023-099AM

PAYLOAD ACTIVE UNKNOWN

§ Identity

Operator
Country
US
Launch date
2023-07-16
Launch site
AFETR
Launch vehicle
Mass (kg)
RCS (m²)

Purposes: comms

External: N2YO · Heavens-Above · Gunter

§ Orbital elements

Epoch: 2026-05-24T11:20:29.169312Z

Period
94.27 min
Inclination
43.0022°
Eccentricity
0.0001840
Mean motion
15.27579853 rev/d
Perigee alt
481.8 km
Apogee alt
484.3 km
Semi-major
6,861.2 km
B*
5.2801e-5
RAAN
173.3286°
Arg perigee
294.2044°
Mean anomaly
65.8615°
Rev number
15,779

§ Raw data

STARLINK-63561 57363U 23099AM  26144.47255983  .00001191  00000+0  52801-4 0  99982 57363  43.0022 173.3286 0001840 294.2044  65.8615 15.27579853157797

JSON: /api/v1/satellites/57363 · /tle

For live sub-satellite position, see the globe view (requires WebGL).

§ Visibility from observer

Set your observer location to see the next 7 days of passes ≥ 10°. The values pass through the URL so the page stays shareable.

No JS? Fill the form by hand. The geolocation button needs JavaScript.